Location: *
(48.8667°N, 2.3331°E)
Time: 07:21:48
(UTC+00:00)

Cosmos 2061 Rocket - Pass Details

Date: 20 August 2020
Orbit: 966 x 1012 km, 82.9° (Epoch: 23 September)

Event Time Altitude Azimuth Distance (km) Brightness Sun altitude
Exits shadow 23:15:49 - 250° (WSW) 3,236 6.6 -28.5°
Reaches altitude 10° 23:17:58 10° 264° (W) 2,709 6.3 -28.6°
Maximum altitude 23:21:42 16° 301° (WNW) 2,291 6.3 -28.7°
Drops below altitude 10° 23:25:26 10° 339° (NNW) 2,723 7.2 -28.8°
Sets 23:29:06 0° 0° (N) 3,680 8.2 -28.9°
